ANA984 RJCC-RJOO

Flight info

Callsign ANA984
Flight time N/A
Altitude 38000
Route DALBI Y120 TAPPI Y12 ARIKA Y14 GOLDO Y381 KMC Y384 ROKKO
Aircraft B772/H-SDE2E3FGHIJ5LORVWXY/LB1D1

Departure

Time 2026-05-05 09:04
Airport New Chitose Airport (RJCC)

Arrival

Time N/A
Airport Osaka Itami International Airport (RJOO)
Time Latitude Longitude Altitude Speed Heading
2026-05-05 08:38 42.79312 141.68428 83 ft 0 kts 81°
2026-05-05 08:59 42.79316 141.68440 88 ft 6 kts 62°
2026-05-05 08:59 42.79351 141.68430 87 ft 6 kts 298°
2026-05-05 08:59 42.79345 141.68370 87 ft 6 kts 252°
2026-05-05 08:59 42.79307 141.68344 87 ft 6 kts 184°
2026-05-05 09:00 42.79262 141.68348 87 ft 7 kts 174°
2026-05-05 09:00 42.79216 141.68355 87 ft 7 kts 173°
2026-05-05 09:00 42.79168 141.68364 87 ft 8 kts 171°
2026-05-05 09:00 42.79117 141.68392 88 ft 8 kts 147°
2026-05-05 09:01 42.79074 141.68438 88 ft 8 kts 142°
2026-05-05 09:01 42.79027 141.68484 88 ft 8 kts 146°
2026-05-05 09:01 42.78976 141.68522 88 ft 8 kts 155°
2026-05-05 09:01 42.78922 141.68551 87 ft 8 kts 161°
2026-05-05 09:02 42.78867 141.68574 87 ft 8 kts 161°
2026-05-05 09:02 42.78827 141.68626 87 ft 8 kts 111°
2026-05-05 09:02 42.78825 141.68691 87 ft 6 kts 86°
2026-05-05 09:02 42.78830 141.68755 84 ft 7 kts 84°
2026-05-05 09:03 42.78812 141.68817 88 ft 7 kts 151°
2026-05-05 09:03 42.78776 141.68824 86 ft 0 kts 173°
2026-05-05 09:03 42.78671 141.68842 89 ft 44 kts 172°
2026-05-05 09:03 42.78083 141.68945 86 ft 124 kts 174°
2026-05-05 09:04 42.77064 141.69123 507 ft 153 kts 172°
2026-05-05 09:04 42.76066 141.69263 1783 ft 143 kts 179°
2026-05-05 09:04 42.75026 141.69467 2392 ft 165 kts 179°
2026-05-05 09:04 42.73803 141.69710 2652 ft 191 kts 179°
2026-05-05 09:05 42.72406 141.69989 2841 ft 220 kts 179°
2026-05-05 09:05 42.70809 141.70314 3267 ft 239 kts 180°
2026-05-05 09:05 42.69139 141.70663 3965 ft 247 kts 181°
2026-05-05 09:05 42.67413 141.71024 4725 ft 254 kts 181°
2026-05-05 09:06 42.65658 141.71341 5436 ft 250 kts 189°
2026-05-05 09:06 42.64025 141.70807 6068 ft 238 kts 217°
2026-05-05 09:06 42.62813 141.69347 6833 ft 234 kts 235°
2026-05-05 09:06 42.61976 141.67464 7502 ft 234 kts 252°
2026-05-05 09:07 42.61575 141.65299 8145 ft 239 kts 260°
2026-05-05 09:07 42.61290 141.63051 8867 ft 244 kts 262°
2026-05-05 09:07 42.61017 141.60764 9638 ft 248 kts 262°
2026-05-05 09:07 42.60734 141.58431 10326 ft 254 kts 263°
2026-05-05 09:08 42.60430 141.55956 10585 ft 280 kts 262°
2026-05-05 09:08 42.60087 141.53220 10817 ft 307 kts 262°
2026-05-05 09:08 42.59713 141.50315 11520 ft 318 kts 262°
2026-05-05 09:08 42.59322 141.47336 12532 ft 321 kts 262°
2026-05-05 09:09 42.58925 141.44352 13754 ft 322 kts 263°
2026-05-05 09:09 42.58526 141.41350 14724 ft 326 kts 262°
2026-05-05 09:09 42.58119 141.38297 15604 ft 332 kts 262°
2026-05-05 09:09 42.57704 141.35188 16504 ft 338 kts 262°
2026-05-05 09:10 42.57281 141.32030 17379 ft 343 kts 262°
2026-05-05 09:10 42.56849 141.28822 18255 ft 348 kts 262°
2026-05-05 09:10 42.56246 141.25663 19000 ft 356 kts 253°
2026-05-05 09:10 42.55240 141.22567 19753 ft 361 kts 249°
2026-05-05 09:11 42.54166 141.19477 20502 ft 364 kts 249°
2026-05-05 09:11 42.53098 141.16348 21244 ft 368 kts 250°
2026-05-05 09:11 42.52041 141.13165 21958 ft 373 kts 250°
2026-05-05 09:11 42.50982 141.09935 22675 ft 378 kts 251°
2026-05-05 09:12 42.49912 141.06662 23404 ft 382 kts 251°
2026-05-05 09:12 42.48827 141.03350 24064 ft 387 kts 251°
2026-05-05 09:12 42.47725 140.99993 24640 ft 392 kts 251°
2026-05-05 09:12 42.46607 140.96592 25186 ft 398 kts 251°
2026-05-05 09:13 42.45474 140.93153 25766 ft 403 kts 251°
2026-05-05 09:13 42.44325 140.89671 26366 ft 407 kts 251°
2026-05-05 09:13 42.43164 140.86153 26916 ft 411 kts 251°
2026-05-05 09:13 42.41991 140.82602 27458 ft 416 kts 251°
2026-05-05 09:14 42.40804 140.79014 27950 ft 420 kts 251°
2026-05-05 09:14 42.39602 140.75388 28451 ft 424 kts 251°
2026-05-05 09:14 42.38391 140.71736 28936 ft 428 kts 251°
2026-05-05 09:14 42.37166 140.68051 29410 ft 430 kts 251°
2026-05-05 09:15 42.35626 140.64535 29655 ft 447 kts 236°
2026-05-05 09:15 42.33287 140.61646 30058 ft 465 kts 221°
2026-05-05 09:15 42.30374 140.59608 30475 ft 480 kts 204°
2026-05-05 09:15 42.27146 140.58380 30774 ft 486 kts 200°
2026-05-05 09:16 42.23848 140.57260 31064 ft 490 kts 200°
2026-05-05 09:16 42.20541 140.56131 31453 ft 491 kts 200°
2026-05-05 09:16 42.17234 140.54954 31860 ft 491 kts 201°
2026-05-05 09:16 42.13937 140.53734 32200 ft 493 kts 201°
2026-05-05 09:17 42.10628 140.52490 32501 ft 495 kts 201°
2026-05-05 09:17 42.07302 140.51239 32792 ft 497 kts 201°
2026-05-05 09:17 42.03967 140.49984 33119 ft 498 kts 201°
2026-05-05 09:17 42.00626 140.48728 33501 ft 498 kts 202°
2026-05-05 09:18 41.97297 140.47477 33936 ft 497 kts 202°
2026-05-05 09:18 41.93971 140.46229 34313 ft 495 kts 201°
2026-05-05 09:18 41.90662 140.44988 34747 ft 492 kts 201°
2026-05-05 09:18 41.87374 140.43758 35213 ft 488 kts 201°
2026-05-05 09:19 41.84118 140.42541 35673 ft 485 kts 201°
2026-05-05 09:19 41.80921 140.41346 36105 ft 481 kts 201°
2026-05-05 09:19 41.77709 140.40146 36532 ft 478 kts 201°
2026-05-05 09:19 41.74510 140.38951 36936 ft 476 kts 201°
2026-05-05 09:20 41.71336 140.37767 37355 ft 473 kts 201°
2026-05-05 09:20 41.68172 140.36588 37757 ft 470 kts 201°
2026-05-05 09:20 41.65031 140.35418 38080 ft 469 kts 201°
2026-05-05 09:21 41.58726 140.33073 38043 ft 470 kts 201°
2026-05-05 09:21 41.52442 140.30756 38038 ft 467 kts 201°
2026-05-05 09:22 41.46181 140.28456 38051 ft 467 kts 201°
2026-05-05 09:22 41.39920 140.26157 38058 ft 466 kts 201°